This is the latest recevied weather packets stored in our database for station/object KC1OHT-13. If no packets are shown the sender has not sent any weather packets the latest 1 day(s).
| Time | Temp. | Humidity | Pressure | Rain* | Wind** | Luminosity | Snow |
|---|---|---|---|---|---|---|---|
| 1778013750 | 21.11° C | 54% | 1005.4 hPa | 0 mm | 1.34 m/s, 207° | 275 W/m² | - |
| 1778013447 | 21.67° C | 52% | 1005.3 hPa | 0 mm | 1.34 m/s, 25° | 300 W/m² | - |
| 1778013144 | 22.22° C | 50% | 1005.3 hPa | 0 mm | 4.02 m/s, 195° | 391 W/m² | - |
| 1778012840 | 22.22° C | 49% | 1005.1 hPa | 0 mm | 2.68 m/s, 162° | 401 W/m² | - |
| 1778012536 | 22.22° C | 49% | 1005.2 hPa | 0 mm | 2.68 m/s, 154° | 411 W/m² | - |
| 1778012233 | 22.22° C | 50% | 1005.3 hPa | 0 mm | 1.34 m/s, 14° | 419 W/m² | - |
| 1778011931 | 22.78° C | 49% | 1005.2 hPa | 0 mm | 2.24 m/s, 210° | 432 W/m² | - |
| 1778011628 | 22.78° C | 49% | 1005.3 hPa | 0 mm | 1.79 m/s, 193° | 449 W/m² | - |
| 1778011325 | 23.33° C | 48% | 1005.3 hPa | 0 mm | 1.79 m/s, 46° | 462 W/m² | - |
| 1778011021 | 23.33° C | 47% | 1005.3 hPa | 0 mm | 0.89 m/s, 332° | 456 W/m² | - |
| 1778010718 | 23.33° C | 46% | 1005.3 hPa | 0 mm | 0.89 m/s, 125° | 487 W/m² | - |
| 1778010415 | 23.33° C | 46% | 1005.2 hPa | 0 mm | 4.02 m/s, 163° | 502 W/m² | - |
| 1778010111 | 23.89° C | 46% | 1005.3 hPa | 0 mm | 2.24 m/s, 271° | 515 W/m² | - |
| 1778009808 | 23.89° C | 45% | 1005.4 hPa | 0 mm | 2.68 m/s, 165° | 522 W/m² | - |
| 1778009505 | 23.33° C | 46% | 1005.2 hPa | 0 mm | 2.24 m/s, 254° | 536 W/m² | - |
| 1778009204 | 23.33° C | 47% | 1005.5 hPa | 0 mm | 1.79 m/s, 151° | 549 W/m² | - |
| 1778008901 | 23.33° C | 47% | 1005.6 hPa | 0 mm | 2.24 m/s, 125° | 560 W/m² | - |
| 1778008599 | 23.89° C | 46% | 1005.5 hPa | 0 mm | 1.79 m/s, 155° | 562 W/m² | - |
| 1778008297 | 23.89° C | 45% | 1005.6 hPa | 0 mm | 0.89 m/s, 123° | 580 W/m² | - |
| 1778007993 | 24.44° C | 45% | 1005.3 hPa | 0 mm | 1.79 m/s, 357° | 590 W/m² | - |
| 1778007693 | 23.89° C | 46% | 1005.5 hPa | 0 mm | 2.24 m/s, 288° | 596 W/m² | - |
| 1778007390 | 23.89° C | 46% | 1005.7 hPa | 0 mm | 2.24 m/s, 184° | 606 W/m² | - |
| 1778007086 | 23.89° C | 46% | 1005.8 hPa | 0 mm | 0.89 m/s, 268° | 614 W/m² | - |
| 1778006783 | 23.89° C | 47% | 1005.8 hPa | 0 mm | 2.68 m/s, 245° | 625 W/m² | - |
| 1778006480 | 23.33° C | 47% | 1005.9 hPa | 0 mm | 2.24 m/s, 186° | 633 W/m² | - |
* Rain latest hour (hover to see other rain measurements)
** Current wind speed in m/s (hover to see current wind gust speed)